seed: p2v3s79

Total games: 52


  • Filter by # of Players
  • Filter by Score
  • Filter by Variant



ID # of Players Score Variant Date & Time Players
327319 2 29 Rainbow (6 Suits) 2020-10-24 — 14:40:07 UTC JoostM, Thomas1234
502550 2 29 Rainbow (6 Suits) 2021-04-16 — 03:47:24 UTC hambrenson, veganpecan
502947 2 29 Rainbow (6 Suits) 2021-04-16 — 16:20:05 UTC rea, rossopesce
543259 2 29 Rainbow (6 Suits) 2021-05-29 — 00:42:04 UTC Mage, rainboy
194710 2 28 Rainbow (6 Suits) 2020-06-05 — 05:13:24 UTC jalmenda, zmill415
321350 2 28 Rainbow (6 Suits) 2020-10-16 — 02:34:46 UTC johnboy81918, Stephzheng
392216 2 28 Rainbow (6 Suits) 2021-01-04 — 04:56:24 UTC gsherm, tbt
412505 2 28 Rainbow (6 Suits) 2021-01-23 — 17:43:44 UTC Etherealz, missyalyssi
484483 2 28 Rainbow (6 Suits) 2021-03-29 — 17:21:41 UTC lcflorencelo, slyrk
509103 2 28 Rainbow (6 Suits) 2021-04-22 — 03:26:07 UTC jasmine, NotAnotherMatt
513534 2 28 Rainbow (6 Suits) 2021-04-27 — 00:45:45 UTC Frozen_Animal, Macs_girl
628803 2 28 Rainbow (6 Suits) 2021-09-18 — 19:32:33 UTC JonathanHicks, sole.garcia
588371 2 27 Rainbow (6 Suits) 2021-07-13 — 19:08:34 UTC Frozen_Animal_, Macs_girl_
130924 2 26 Rainbow (6 Suits) 2020-04-20 — 22:01:54 UTC Sadret, Sharklah
141802 2 26 Rainbow (6 Suits) 2020-04-28 — 04:06:55 UTC fivefives, jwngr
406745 2 26 Rainbow (6 Suits) 2021-01-17 — 23:09:31 UTC FrozenAnimal, Macsgirl
202493 2 25 Rainbow (6 Suits) 2020-06-11 — 10:14:26 UTC Guamo, larki
601858 2 25 Rainbow (6 Suits) 2021-08-04 — 17:46:30 UTC clspencer, sjforion
631204 2 25 Rainbow (6 Suits) 2021-09-23 — 02:18:23 UTC Cornflake62, kuib
272490 2 24 Rainbow (6 Suits) 2020-08-16 — 12:30:14 UTC Lee3, RickSanchez
48732 2 23 Rainbow (6 Suits) 2019-08-02 — 00:11:10 UTC em, J3enjamin
5766 2 0 Rainbow (6 Suits) 2018-04-29 — 01:48:47 UTC florrat2, ThirdStrike
6388 2 0 Rainbow (6 Suits) 2018-05-18 — 05:16:12 UTC sankala, Zamiel
25578 2 0 Rainbow (6 Suits) 2019-03-25 — 02:36:11 UTC Libster, Razgovor
60870 2 0 Rainbow (6 Suits) 2019-10-26 — 22:10:44 UTC hbjornoy, heddav
64695 2 0 Rainbow (6 Suits) 2019-11-15 — 10:18:45 UTC Dr_Kakashi, RaKXeR
122415 2 0 Rainbow (6 Suits) 2020-04-15 — 02:08:18 UTC dewey, liwei
139702 2 0 Rainbow (6 Suits) 2020-04-26 — 19:00:33 UTC bornagy, nandu13
162917 2 0 Rainbow (6 Suits) 2020-05-12 — 07:03:11 UTC WadeYao, YYF
164008 2 0 Rainbow (6 Suits) 2020-05-13 — 05:11:32 UTC Dilshaad, Dimithi
167718 2 0 Rainbow (6 Suits) 2020-05-16 — 02:36:09 UTC anna2, bfichera
193795 2 0 Rainbow (6 Suits) 2020-06-04 — 15:59:50 UTC Hawlucha, mperera
195505 2 0 Rainbow (6 Suits) 2020-06-06 — 00:59:28 UTC buxtehude11, yeeclaw
201717 2 0 Rainbow (6 Suits) 2020-06-10 — 20:36:14 UTC Crivens_Temp, eliyahu
223098 2 0 Rainbow (6 Suits) 2020-06-29 — 06:59:10 UTC RespectCaviar, schemetrical
229343 2 0 Rainbow (6 Suits) 2020-07-04 — 21:08:52 UTC annieboboh, penguin69
235473 2 0 Rainbow (6 Suits) 2020-07-10 — 21:50:50 UTC aridante, nostalgiccat
277521 2 0 Rainbow (6 Suits) 2020-08-22 — 15:20:03 UTC opurtell, raholstine
296025 2 0 Rainbow (6 Suits) 2020-09-12 — 19:57:58 UTC ihavenoidea, VerySloppyTwo
333858 2 0 Rainbow (6 Suits) 2020-11-02 — 20:00:34 UTC mglanzer, rfrank27
368659 2 0 Rainbow (6 Suits) 2020-12-12 — 06:38:40 UTC heftych1, kimgannon
372519 2 0 Rainbow (6 Suits) 2020-12-16 — 04:19:19 UTC Fffffffffffffff, mrpoopybutthole
417988 2 0 Rainbow (6 Suits) 2021-01-28 — 22:45:37 UTC socerman, tacobot5000
421694 2 0 Rainbow (6 Suits) 2021-02-01 — 02:12:58 UTC Cold, Shad_Crow
456484 2 0 Rainbow (6 Suits) 2021-03-04 — 17:22:03 UTC ArcheNoah, jule_2000
481352 2 0 Rainbow (6 Suits) 2021-03-26 — 17:55:52 UTC Footscrayzy, Noble
568912 2 0 Rainbow (6 Suits) 2021-06-21 — 17:17:50 UTC enkimdu, Ritz1974
570378 2 0 Rainbow (6 Suits) 2021-06-22 — 19:30:02 UTC adik, oldgreg
613520 2 0 Rainbow (6 Suits) 2021-08-23 — 20:51:06 UTC Charles123123, wardsux1
623384 2 0 Rainbow (6 Suits) 2021-09-08 — 22:48:44 UTC JTJTJTJTJT, zxczxczxczxczxc
642752 2 0 Rainbow (6 Suits) 2021-10-13 — 19:09:32 UTC ajsehifowha, dunes1
646943 2 0 Rainbow (6 Suits) 2021-10-21 — 18:52:09 UTC asdaa, HiIIIHIII